Lapse_Rate
6.4 6.3 5.8 5.8 5.8 5.9 5.8 5.5 5.6 5.8 6.1 6.2 5.4 5.3 5.6 5.6 5.3 5.0 5.1 5.0 5.1 5.2
6.4 6.1 5.9 5.8 6.3 6.0 5.6 5.8 5.9 6.3 6.0 5.7 5.5 5.5 5.8 5.2 4.8 4.9 5.0 5.2 5.5 5.7
6.3 6.1 6.0 5.9 6.0 5.6 5.1 5.8 6.3 6.0 5.9 5.9 5.5 5.4 5.4 5.0 5.1 5.2 5.3 5.7 5.7 5.8
6.3 6.2 6.2 5.8 5.8 5.3 5.7 6.1 6.0 6.0 6.1 5.6 5.4 5.3 5.5 5.4 5.2 5.4 5.8 5.8 5.9 6.1
6.6 6.3 6.0 6.0 5.7 6.3 6.1 6.1 5.6 5.5 5.4 5.5 5.8 5.6 5.3 5.1 5.4 5.7 5.8 6.1 6.3 6.5
6.5 6.0 5.6 5.5 6.0 5.8 5.8 5.3 5.1 5.7 5.5 5.6 5.5 5.2 4.9 5.3 5.6 5.8 6.0 6.3 6.5 6.4
6.2 5.6 5.5 5.1 5.3 5.3 4.8 4.9 5.4 5.5 5.6 5.4 5.3 5.1 5.2 5.5 5.7 5.9 6.3 6.5 6.5 6.9
6.5 5.6 5.1 5.5 5.5 5.1 5.5 5.5 5.4 5.6 5.5 5.3 4.9 4.9 5.3 5.5 5.7 6.2 6.6 6.7 7.1 7.1
5.8 5.4 6.2 6.1 5.5 5.7 5.3 5.6 5.3 5.4 5.3 4.7 4.7 5.2 5.5 5.7 6.0 6.5 6.7 7.2 7.2 7.1
5.9 6.0 5.7 5.5 5.4 5.7 5.8 5.3 5.4 5.2 4.8 4.8 5.3 5.5 5.7 5.9 6.1 6.6 6.9 7.2 7.2 7.2
5.8 5.6 5.7 5.7 5.7 5.6 5.4 5.4 5.1 4.9 5.1 5.4 5.6 5.8 5.9 6.1 6.4 7.0 7.3 7.3 7.2 7.2
5.5 6.0 5.5 5.4 5.5 5.3 5.4 5.1 5.0 5.1 5.4 5.6 5.8 5.9 6.1 6.5 6.8 7.3 7.5 7.2 7.1 7.0
5.8 5.6 5.3 5.3 5.4 5.4 5.0 5.0 5.2 5.5 5.5 5.7 5.8 5.8 6.1 6.4 6.8 7.3 7.4 7.3 6.9 6.6
5.4 5.1 5.2 5.4 5.1 4.9 5.1 5.4 5.5 5.6 5.7 5.8 5.8 5.9 6.3 6.9 7.1 7.1 7.2 7.1 6.8 6.5
Wind_Speed
7 4 5 6 7 5 5 6 6 5 4 7 7 6 6 3 3 4 4 5 4 2
6 7 7 9 9 7 6 5 7 9 10 10 7 7 5 3 4 4 3 3 2 2
8 9 11 10 9 8 7 6 5 5 5 6 6 7 7 4 4 4 3 3 4 4
8 7 8 7 7 8 6 6 4 5 5 5 6 8 5 6 6 6 5 4 5 5
10 10 9 7 6 4 3 5 6 7 6 4 6 6 6 6 5 6 5 5 5 6
10 7 7 6 5 4 6 6 5 2 4 5 6 6 6 6 5 5 5 5 5 6
9 7 5 5 5 6 5 4 3 3 4 5 5 5 5 5 6 6 5 5 6 6
5 7 6 5 5 5 4 2 1 1 2 4 4 4 5 5 5 6 6 6 6 5
8 7 6 5 5 3 2 1 2 3 4 4 3 8 8 7 6 6 6 6 5 5
6 6 5 4 4 2 3 2 5 4 4 5 6 9 11 11 5 5 5 5 5 5
5 5 5 3 0 3 2 4 4 4 4 5 6 11 12 10 5 5 6 6 6 6
5 4 3 4 4 3 3 3 3 4 5 5 6 9 10 8 5 5 7 6 6 7
3 2 3 3 4 3 3 4 4 6 6 8 7 8 10 8 3 8 8 9 8 14
2 1 3 4 2 4 5 5 6 6 7 7 8 8 13 14 6 7 9 8 7 6
Wind_Direction
172 163 152 147 149 154 153 145 139 92 156 184 175 170 181 154 185 185 181 182 199 218
163 159 162 150 154 152 143 134 133 156 198 192 187 201 181 191 202 195 194 205 215 229
149 154 154 141 136 139 133 135 162 189 220 192 207 207 195 207 219 208 220 219 223 240
150 126 115 121 140 151 139 151 186 178 188 208 215 216 205 217 217 216 223 224 224 255
108 113 115 108 106 119 168 221 167 198 203 204 221 221 221 227 219 218 231 248 237 253
121 117 126 137 154 178 159 188 188 187 231 240 240 242 237 231 230 228 240 249 247 253
139 144 141 131 141 163 166 157 161 201 241 259 274 264 258 231 231 242 245 250 247 244
93 100 104 120 137 126 119 119 153 255 278 269 265 263 251 241 245 249 257 255 247 239
112 124 128 126 109 90 74 312 209 221 249 276 270 262 254 240 240 245 245 258 261 254
122 112 105 102 101 121 222 226 235 256 268 278 282 276 266 253 231 233 242 248 253 262
114 109 104 93 213 232 230 242 251 264 274 280 280 272 274 271 253 243 247 244 246 236
107 130 132 241 253 256 242 248 247 250 275 275 277 282 276 278 260 254 254 252 235 230
136 176 250 270 270 246 230 245 253 267 257 262 272 277 272 267 222 271 266 261 246 242
220 341 283 283 246 259 258 263 264 261 267 263 255 267 264 261 242 245 262 257 250 235